Location: Unspecified
(35.6961°N, 0.0000°E)
Time: 14:26:39
(UTC+00:00)

Explorer 11/Cluster Stage 4 - Pass Details

Date: 25 May 2019
Orbit: 467 x 1260 km, 28.8° (Epoch: 24 June)

Event Time Altitude Azimuth Distance (km) Brightness Sun altitude
Rises 01:25:28 0° 224° (SW) 3,684 - -29.7°
Reaches altitude 10° 01:29:03 10° 209° (SSW) 2,574 - -29.4°
Maximum altitude 01:33:22 20° 163° (SSE) 1,763 - -29.0°
Drops below altitude 10° 01:37:06 10° 117° (ESE) 2,178 - -28.7°
Exits shadow 01:37:40 - 112° (ESE) 2,318 9.0 -28.6°
Sets 01:39:50 0° 100° (E) 2,958 9.8 -28.4°
